period_start,C,m1,H,J0,J1,J2,J3,J4,J5,JA,JB,JC,JD,JJ,JK,JN,#
2018-04-22 00:04:28,0.10,7.27,0.00,27.99,30.97,33.66,13.74,47.81,1019.55,2006.00,1488.85,1726.05,1959.03,600.12,588.01,55.36,0000 0000 0000 0000 000000
2018-04-22 00:09:29,0.13,7.27,0.00,27.99,30.98,33.67,13.69,47.86,1019.56,2006.00,1487.96,1725.50,1958.20,599.86,587.79,55.41,0000 0000 0000 0000 000000
2018-04-22 00:14:30,0.10,7.28,0.00,28.02,30.99,33.66,13.72,47.99,1019.55,2006.00,1487.08,1724.95,1957.45,599.99,587.75,55.46,0000 0000 0000 0000 000000
2018-04-22 00:19:32,0.12,7.29,0.00,28.05,31.00,33.68,13.64,48.02,1019.55,2006.00,1486.29,1724.18,1956.88,599.93,587.68,55.51,0000 0000 0000 0000 000000
2018-04-22 00:24:33,0.11,7.29,0.00,28.08,31.00,33.70,13.75,47.89,1019.55,2006.00,1485.48,1723.78,1956.05,599.84,587.54,55.56,0000 0000 0000 0000 000000
2018-04-22 00:29:34,0.12,7.30,0.00,28.13,31.00,33.70,13.70,47.90,1019.55,2006.00,1484.66,1723.04,1955.33,600.32,587.89,55.61,0000 0000 0000 0000 000000
2018-04-22 00:34:36,0.10,7.30,0.00,28.16,31.01,33.70,13.66,47.94,1019.55,2006.00,1483.93,1722.40,1954.69,599.92,587.37,55.66,0000 0000 0000 0000 000000
2018-04-22 00:39:37,0.08,7.31,0.00,28.18,31.02,33.72,13.68,47.94,1019.55,2006.00,1483.07,1721.95,1953.97,599.79,587.33,55.71,0000 0000 0000 0000 000000
2018-04-22 00:44:39,0.15,7.31,0.00,28.20,31.03,33.73,13.69,47.92,1019.55,2006.00,1482.23,1721.13,1953.13,600.17,587.61,55.76,0000 0000 0000 0000 000000
2018-04-22 00:49:40,0.12,7.32,0.00,28.24,31.05,33.74,13.72,47.83,1019.53,2005.99,1481.45,1720.62,1952.42,600.10,587.28,55.81,0000 0000 0000 0000 000000
2018-04-22 00:54:41,0.04,7.32,0.00,28.29,31.06,33.76,13.75,48.02,1019.50,2005.99,1480.90,1720.01,1951.90,599.83,587.08,55.86,0000 0000 0000 0000 000000
2018-04-22 00:59:42,0.14,7.33,0.00,28.31,31.07,33.77,13.68,48.03,1019.49,2005.99,1480.06,1719.33,1951.05,600.28,587.49,55.91,0000 0000 0000 0000 000000
2018-04-22 01:04:44,0.11,7.34,0.00,28.34,31.10,33.79,13.59,47.98,1019.48,2005.99,1479.17,1718.86,1950.22,599.49,586.46,55.96,0000 0000 0000 0000 000000
2018-04-22 01:09:45,0.12,7.34,0.00,28.35,31.12,33.81,13.69,48.03,1019.49,2005.97,1478.50,1718.06,1949.60,599.75,586.87,56.01,0000 0000 0000 0000 000000
2018-04-22 01:14:46,0.11,7.35,0.00,28.39,31.14,33.84,13.67,47.99,1019.49,2005.92,1477.71,1717.41,1948.83,600.16,587.27,56.06,0000 0000 0000 0000 000000
2018-04-22 01:19:48,0.06,7.35,0.00,28.41,31.16,33.87,13.71,48.07,1019.49,2005.89,1476.96,1716.91,1948.04,599.92,586.81,56.12,0000 0000 0000 0000 000000
2018-04-22 01:24:49,0.11,7.36,0.00,28.45,31.18,33.89,13.59,47.90,1019.46,2005.70,1476.13,1716.11,1947.34,599.51,586.43,56.17,0000 0000 0000 0000 000000
2018-04-22 01:29:50,0.07,7.36,0.00,28.47,31.20,33.90,13.72,47.97,1019.47,2005.24,1475.34,1715.45,1946.48,600.29,587.20,56.22,0000 0000 0000 0000 000000
2018-04-22 01:34:51,0.08,7.36,0.00,28.51,31.22,33.93,13.65,47.93,1019.41,2005.10,1474.47,1714.93,1945.80,600.21,586.85,56.27,0000 0000 0000 0000 000000
2018-04-22 01:39:52,0.11,7.37,0.00,28.53,31.25,33.95,13.66,48.04,1019.19,2005.04,1473.73,1714.11,1945.02,599.94,586.41,56.32,0000 0000 0000 0000 000000
2018-04-22 01:44:53,0.11,7.38,0.00,28.59,31.26,33.97,13.63,48.04,1019.10,2005.02,1472.86,1713.63,1944.21,599.91,586.13,56.37,0000 0000 0000 0000 000000
2018-04-22 01:49:54,0.09,7.38,0.00,28.60,31.28,33.99,13.65,48.05,1019.11,2005.00,1472.03,1713.00,1943.52,599.81,586.24,56.42,0000 0000 0000 0000 000000
2018-04-22 01:54:56,0.12,7.39,0.00,28.64,31.30,34.01,13.62,48.08,1019.12,2005.00,1471.22,1712.31,1942.84,599.78,585.98,56.47,0000 0000 0000 0000 000000
2018-04-22 01:59:57,0.09,7.39,0.00,28.66,31.32,34.03,13.67,47.96,1019.10,2005.00,1470.55,1711.86,1942.02,600.13,586.38,56.52,0000 0000 0000 0000 000000
2018-04-22 02:04:59,0.11,7.40,0.00,28.70,31.34,34.05,13.69,47.86,1019.08,2005.00,1469.83,1711.06,1941.19,600.08,586.25,56.57,0000 0000 0000 0000 000000
2018-04-22 02:10:00,0.12,7.40,0.00,28.74,31.36,34.07,13.65,47.90,1019.07,2004.99,1469.03,1710.50,1940.57,600.02,586.03,56.62,0000 0000 0000 0000 000000
2018-04-22 02:15:01,0.09,7.41,0.00,28.79,31.37,34.08,13.66,47.86,1019.06,2004.98,1468.19,1709.94,1939.90,600.01,586.02,56.67,0000 0000 0000 0000 000000
2018-04-22 02:20:02,0.13,7.42,0.00,28.84,31.40,34.11,13.62,47.98,1019.06,2004.94,1467.57,1709.13,1939.08,599.94,585.80,56.72,0000 0000 0000 0000 000000
2018-04-22 02:25:04,0.07,7.42,0.00,28.88,31.42,34.14,13.70,47.93,1019.06,2004.82,1466.91,1708.67,1938.33,599.87,585.71,56.77,0000 0000 0000 0000 000000
2018-04-22 02:30:05,0.07,7.43,0.00,28.92,31.45,34.16,13.63,47.86,1019.06,2004.56,1466.08,1708.00,1937.67,599.90,585.61,56.82,0000 0000 0000 0000 000000
2018-04-22 02:35:06,0.10,7.43,0.00,28.96,31.47,34.19,13.72,47.85,1019.06,2004.32,1465.33,1707.37,1936.98,600.36,586.01,56.87,0000 0000 0000 0000 000000
2018-04-22 02:40:07,0.06,7.43,0.00,29.00,31.50,34.22,13.63,47.85,1019.05,2004.06,1464.65,1706.88,1936.16,600.39,585.92,56.92,0000 0000 0000 0000 000000
2018-04-22 02:45:08,0.12,7.44,0.00,29.03,31.53,34.24,13.61,47.81,1018.96,2004.07,1463.81,1706.09,1935.48,600.07,585.52,56.97,0000 0000 0000 0000 000000
2018-04-22 02:50:10,0.10,7.44,0.00,29.06,31.56,34.27,13.65,47.97,1018.69,2004.02,1463.07,1705.56,1934.83,599.86,585.14,57.02,0000 0000 0000 0000 000000
2018-04-22 02:55:11,0.09,7.45,0.00,29.10,31.59,34.30,13.65,47.92,1018.59,2004.00,1462.43,1704.99,1934.04,599.71,584.97,57.08,0000 0000 0000 0000 000000
2018-04-22 03:00:12,0.14,7.45,0.00,29.12,31.62,34.33,13.59,47.88,1018.64,2004.00,1461.59,1704.21,1933.26,599.79,584.94,57.13,0000 0000 0000 0000 000000
2018-04-22 03:05:13,0.09,7.46,0.00,29.16,31.65,34.37,13.62,47.90,1018.70,2003.98,1460.89,1703.64,1932.52,600.01,585.01,57.18,0000 0000 0000 0000 000000
2018-04-22 03:10:15,0.08,7.47,0.00,29.21,31.68,34.39,13.60,47.81,1018.78,2003.92,1460.06,1702.99,1931.85,600.06,585.02,57.23,0000 0000 0000 0000 000000
2018-04-22 03:15:16,0.06,7.47,0.00,29.24,31.71,34.42,13.61,47.85,1018.68,2003.48,1459.35,1702.21,1931.05,599.86,584.84,57.28,0000 0000 0000 0000 000000
2018-04-22 03:20:17,0.08,7.47,0.00,29.30,31.75,34.45,13.62,47.72,1018.61,2003.09,1458.70,1701.65,1930.24,600.03,584.78,57.33,0000 0000 0000 0000 000000
2018-04-22 03:25:18,0.10,7.48,0.00,29.37,31.78,34.47,13.60,47.80,1018.59,2003.00,1457.77,1700.98,1929.36,600.05,584.59,57.38,0000 0000 0000 0000 000000
2018-04-22 03:30:20,0.12,7.48,0.00,29.47,31.81,34.52,13.67,47.91,1018.58,2003.00,1457.00,1700.20,1928.70,600.52,584.98,57.43,0000 0000 0000 0000 000000
2018-04-22 03:35:21,0.12,7.49,0.00,29.47,31.84,34.54,13.52,47.81,1018.57,2003.00,1456.17,1699.60,1927.95,600.09,584.40,57.48,0000 0000 0000 0000 000000
2018-04-22 03:40:23,0.11,7.50,0.00,29.50,31.88,34.58,13.64,47.83,1018.57,2002.98,1455.48,1698.97,1927.08,600.43,584.73,57.53,0000 0000 0000 0000 000000
2018-04-22 03:45:24,0.14,7.50,0.00,29.55,31.91,34.60,13.64,47.76,1018.57,2002.92,1454.63,1698.18,1926.29,600.19,584.44,57.58,0000 0000 0000 0000 000000
2018-04-22 03:50:25,0.07,7.50,0.00,29.60,31.94,34.65,13.55,47.77,1018.57,2002.57,1453.73,1697.61,1925.53,599.90,584.07,57.63,0000 0000 0000 0000 000000
2018-04-22 03:55:26,0.02,7.51,0.00,29.65,31.98,34.68,13.63,47.90,1018.51,2002.22,1452.95,1697.00,1924.81,600.30,584.10,57.68,0000 0000 0000 0000 000000
2018-04-22 04:00:27,0.12,7.51,0.00,29.70,32.01,34.72,13.51,47.99,1018.26,2002.04,1452.14,1696.18,1924.02,599.91,583.67,57.73,0000 0000 0000 0000 000000
2018-04-22 04:05:29,0.12,7.52,0.00,29.71,32.04,34.76,13.64,47.99,1018.28,2002.00,1451.42,1695.71,1923.20,599.86,583.65,57.78,0000 0000 0000 0000 000000
2018-04-22 04:10:30,0.11,7.52,0.00,29.76,32.07,34.79,13.58,47.84,1018.28,2002.00,1450.62,1695.00,1922.46,599.96,583.70,57.83,0000 0000 0000 0000 000000
2018-04-22 04:15:31,0.13,7.53,0.00,29.79,32.11,34.82,13.63,47.76,1018.18,2002.00,1449.71,1694.20,1921.74,600.18,583.76,57.88,0000 0000 0000 0000 000000
2018-04-22 04:20:32,0.05,7.54,0.00,29.80,32.14,34.85,13.56,47.74,1018.12,2001.96,1449.01,1693.80,1921.00,599.79,583.25,57.94,0000 0000 0000 0000 000000
2018-04-22 04:25:33,0.12,7.54,0.00,29.87,32.17,34.87,13.54,47.69,1018.09,2001.83,1448.17,1693.04,1920.22,600.30,583.60,57.99,0000 0000 0000 0000 000000
2018-04-22 04:30:35,0.06,7.54,0.00,29.92,32.20,34.92,13.60,47.83,1018.08,2001.27,1447.44,1692.34,1919.60,600.21,583.41,58.04,0000 0000 0000 0000 000000
2018-04-22 04:35:36,0.03,7.55,0.00,29.94,32.24,34.95,13.59,47.89,1018.08,2001.09,1446.77,1691.90,1918.97,600.15,583.55,58.09,0000 0000 0000 0000 000000
2018-04-22 04:40:38,0.12,7.55,0.00,29.96,32.27,34.98,13.50,47.87,1018.01,2001.00,1445.98,1691.11,1918.11,599.96,583.03,58.14,0000 0000 0000 0000 000000
2018-04-22 04:45:39,0.12,7.56,0.00,29.96,32.30,35.02,13.56,47.89,1017.77,2001.00,1445.13,1690.64,1917.39,600.08,583.09,58.19,0000 0000 0000 0000 000000
2018-04-22 04:50:40,0.10,7.56,0.00,30.00,32.33,35.05,13.51,47.76,1017.68,2001.00,1444.45,1690.00,1916.70,599.75,582.68,58.24,0000 0000 0000 0000 000000
2018-04-22 04:55:41,0.12,7.57,0.00,30.05,32.36,35.08,13.49,47.76,1017.63,2000.98,1443.65,1689.21,1915.99,599.72,582.44,58.29,0000 0000 0000 0000 000000
2018-04-22 05:00:43,0.05,7.58,0.00,30.05,32.40,35.11,13.60,47.79,1017.61,2000.84,1443.00,1688.76,1915.19,599.96,582.49,58.34,0000 0000 0000 0000 000000
2018-04-22 05:05:44,0.08,7.58,0.00,30.06,32.42,35.14,13.59,47.68,1017.59,2000.52,1442.23,1688.03,1914.56,600.20,582.89,58.39,0000 0000 0000 0000 000000
2018-04-22 05:10:45,0.07,7.58,0.00,30.12,32.46,35.17,13.57,47.67,1017.59,2000.19,1441.55,1687.52,1913.91,600.17,582.65,58.44,0000 0000 0000 0000 000000
2018-04-22 05:15:47,0.05,7.59,0.00,30.15,32.49,35.20,13.67,47.74,1017.59,2000.03,1440.96,1686.97,1913.11,600.41,582.77,58.49,0000 0000 0000 0000 000000
2018-04-22 05:20:48,0.14,7.59,0.00,30.20,32.52,35.22,13.48,47.61,1017.59,2000.00,1440.16,1686.19,1912.50,600.04,582.50,58.54,0000 0000 0000 0000 000000
2018-04-22 05:25:49,0.10,7.60,0.00,30.23,32.56,35.25,13.53,47.61,1017.50,2000.00,1439.50,1685.72,1911.83,599.87,582.14,58.59,0000 0000 0000 0000 000000
2018-04-22 05:30:50,0.09,7.60,0.00,30.25,32.59,35.28,13.56,47.63,1017.16,2000.00,1438.79,1685.02,1911.02,599.77,581.86,58.64,0000 0000 0000 0000 000000
2018-04-22 05:35:51,0.12,7.61,0.00,30.31,32.62,35.32,13.52,47.63,1017.12,1999.97,1438.03,1684.33,1910.24,599.67,581.61,58.69,0000 0000 0000 0000 000000
2018-04-22 05:40:53,0.06,7.61,0.00,30.31,32.66,35.36,13.51,47.77,1017.12,1999.75,1437.21,1683.86,1909.56,600.00,581.96,58.74,0000 0000 0000 0000 000000
2018-04-22 05:45:54,0.06,7.62,0.00,30.35,32.70,35.38,13.54,47.63,1017.11,1999.24,1436.42,1683.06,1908.85,599.79,581.71,58.79,0000 0000 0000 0000 000000
2018-04-22 05:50:56,0.09,7.62,0.00,30.38,32.73,35.42,13.54,47.68,1017.11,1999.03,1435.78,1682.51,1908.04,599.83,581.51,58.84,0000 0000 0000 0000 000000
2018-04-22 05:55:57,0.08,7.63,0.00,30.43,32.77,35.46,13.54,47.71,1016.97,1999.00,1435.06,1681.97,1907.33,600.27,581.85,58.89,0000 0000 0000 0000 000000
2018-04-22 06:00:58,0.12,7.63,0.00,30.43,32.81,35.49,13.50,47.72,1016.81,1999.00,1434.49,1681.20,1906.75,599.84,581.39,58.95,0000 0000 0000 0000 000000
2018-04-22 06:06:00,0.07,7.64,0.00,30.45,32.85,35.52,13.54,47.70,1016.63,1998.94,1433.88,1680.70,1906.01,599.85,581.31,59.00,0000 0000 0000 0000 000000
2018-04-22 06:11:01,0.05,7.64,0.00,30.49,32.89,35.56,13.49,47.73,1016.63,1998.59,1433.09,1680.01,1905.18,599.73,581.11,59.05,0000 0000 0000 0000 000000
2018-04-22 06:16:02,0.10,7.64,0.00,30.52,32.92,35.60,13.58,47.71,1016.62,1998.16,1432.39,1679.27,1904.55,600.05,581.43,59.10,0000 0000 0000 0000 000000
2018-04-22 06:21:03,0.09,7.65,0.00,30.51,32.96,35.63,13.55,47.77,1016.62,1998.03,1431.51,1678.77,1903.79,599.86,581.17,59.15,0000 0000 0000 0000 000000
2018-04-22 06:26:05,0.08,7.65,0.00,30.55,32.98,35.67,13.52,47.79,1016.52,1998.00,1430.85,1678.02,1903.02,599.65,580.69,59.20,0000 0000 0000 0000 000000
2018-04-22 06:31:06,0.14,7.66,0.00,30.56,33.01,35.70,13.56,47.65,1016.17,1997.99,1430.02,1677.30,1902.18,600.74,581.60,59.25,0000 0000 0000 0000 000000
2018-04-22 06:36:07,0.11,7.66,0.00,30.56,33.04,35.74,13.57,47.83,1016.16,1997.92,1429.12,1676.72,1901.47,600.32,581.25,59.30,0000 0000 0000 0000 000000
2018-04-22 06:41:08,0.06,7.67,0.00,30.58,33.07,35.76,13.50,47.78,1016.13,1997.61,1428.26,1676.03,1900.67,599.82,580.71,59.35,0000 0000 0000 0000 000000
2018-04-22 06:46:10,0.09,7.67,0.00,30.61,33.10,35.79,13.63,47.84,1016.12,1997.19,1427.53,1675.35,1899.98,600.48,581.23,59.40,0000 0000 0000 0000 000000
2018-04-22 06:51:11,0.08,7.68,0.00,30.65,33.13,35.82,13.54,47.76,1015.77,1997.04,1426.77,1674.81,1899.17,599.90,580.50,59.45,0000 0000 0000 0000 000000
2018-04-22 06:56:12,0.11,7.68,0.00,30.65,33.16,35.86,13.45,47.71,1015.65,1997.00,1425.97,1674.06,1898.52,599.54,580.14,59.50,0000 0000 0000 0000 000000
2018-04-22 07:01:13,0.13,7.69,0.00,30.66,33.19,35.88,13.47,47.81,1015.65,1997.00,1425.08,1673.52,1897.77,599.70,580.20,59.55,0000 0000 0000 0000 000000
2018-04-22 07:06:14,0.10,7.70,0.00,30.66,33.21,35.91,13.54,47.80,1015.63,1996.99,1424.25,1672.91,1897.00,600.01,580.44,59.60,0000 0000 0000 0000 000000
2018-04-22 07:11:15,0.11,7.70,0.00,30.69,33.24,35.94,13.55,47.70,1015.62,1996.89,1423.60,1672.12,1896.22,600.19,580.61,59.65,0000 0000 0000 0000 000000
2018-04-22 07:16:16,0.06,7.70,0.00,30.71,33.27,35.96,13.46,47.77,1015.63,1996.59,1422.74,1671.73,1895.48,599.75,580.23,59.70,0000 0000 0000 0000 000000
2018-04-22 07:21:18,0.11,7.71,0.00,30.76,33.29,35.99,13.59,47.62,1015.64,1996.33,1421.63,1671.03,1894.79,600.44,580.61,59.75,0000 0000 0000 0000 000000
2018-04-22 07:26:19,0.07,7.72,0.00,30.80,33.32,36.01,13.45,47.54,1015.53,1996.15,1420.96,1670.46,1894.05,599.71,579.85,59.80,0000 0000 0000 0000 000000
2018-04-22 07:31:21,0.08,7.72,0.00,30.83,33.35,36.04,13.49,47.63,1015.25,1996.03,1420.35,1669.99,1893.37,600.18,579.97,59.86,0000 0000 0000 0000 000000
2018-04-22 07:36:22,0.11,7.72,0.00,30.84,33.37,36.06,13.51,47.55,1015.16,1996.00,1419.73,1669.26,1892.82,600.26,580.04,59.91,0000 0000 0000 0000 000000
2018-04-22 07:41:23,0.08,7.73,0.00,30.83,33.40,36.09,13.47,47.64,1015.12,1996.00,1418.95,1668.83,1892.03,600.16,579.96,59.96,0000 0000 0000 0000 000000
2018-04-22 07:46:24,0.14,7.74,0.00,30.84,33.43,36.12,13.52,47.73,1015.11,1995.99,1418.09,1668.05,1891.27,600.08,579.79,60.01,0000 0000 0000 0000 000000
2018-04-22 07:51:25,0.11,7.74,0.00,30.87,33.46,36.14,13.42,47.79,1015.01,1995.96,1417.44,1667.58,1890.73,599.09,578.99,60.06,0000 0000 0000 0000 000000
2018-04-22 07:56:27,0.05,7.75,0.00,30.87,33.48,36.18,13.41,47.62,1014.81,1995.87,1416.77,1667.01,1890.01,600.03,579.53,60.11,0000 0000 0000 0000 000000
2018-04-22 08:01:28,0.10,3.36,0.00,30.90,33.52,36.19,11.68,41.76,1014.70,1998.21,2542.45,2449.26,2807.96,533.19,514.93,0.02,0000 0000 0000 0000 000002
2018-04-22 08:06:30,0.09,0.00,0.00,30.92,33.54,36.21,13.54,47.48,1014.67,2000.00,3398.12,3045.51,3508.41,600.38,579.82,0.04,0000 0000 0000 0000 000000
2018-04-22 08:11:31,0.10,0.00,0.00,30.94,33.56,36.25,13.56,47.49,1014.69,1999.99,3395.19,3043.77,3506.05,600.15,579.57,0.09,0000 0000 0000 0000 000000
2018-04-22 08:16:32,0.10,0.01,0.00,30.95,33.59,36.27,13.56,47.58,1014.68,1999.97,3392.69,3042.25,3503.94,600.30,579.63,0.14,0000 0000 0000 0000 000000
2018-04-22 08:21:33,0.10,0.01,0.00,30.95,33.61,36.30,13.45,47.50,1014.66,1999.80,3390.45,3040.61,3501.90,599.86,579.18,0.19,0000 0000 0000 0000 000000
2018-04-22 08:26:35,0.08,0.02,0.00,30.96,33.63,36.33,13.47,47.59,1014.66,1999.44,3388.25,3039.20,3499.96,599.71,579.27,0.24,0000 0000 0000 0000 000000
2018-04-22 08:31:36,0.08,0.02,0.00,30.99,33.65,36.35,13.49,47.56,1014.59,1999.12,3386.07,3037.66,3498.08,599.87,579.05,0.29,0000 0000 0000 0000 000000
2018-04-22 08:36:37,0.08,0.03,0.00,31.00,33.67,36.37,13.45,47.61,1014.22,1999.06,3383.99,3036.27,3496.30,599.79,578.79,0.34,0000 0000 0000 0000 000000
2018-04-22 08:41:38,0.10,0.03,0.00,31.00,33.70,36.39,13.45,47.63,1014.18,1999.01,3381.88,3034.84,3494.49,600.19,579.16,0.39,0000 0000 0000 0000 000000
2018-04-22 08:46:40,0.09,0.03,0.00,30.99,33.71,36.42,13.43,47.48,1014.18,1999.00,3379.72,3033.45,3492.70,599.76,578.80,0.44,0000 0000 0000 0000 000000
2018-04-22 08:51:41,0.10,0.04,0.00,30.99,33.74,36.43,13.48,47.58,1014.16,1999.00,3377.51,3031.89,3490.86,599.65,578.72,0.49,0000 0000 0000 0000 000000
2018-04-22 08:56:42,0.09,0.04,0.00,30.97,33.75,36.45,13.56,47.65,1014.03,1998.98,3375.46,3030.45,3489.10,600.24,579.10,0.54,0000 0000 0000 0000 000000
2018-04-22 09:01:43,0.08,0.05,0.00,30.97,33.77,36.47,13.43,47.71,1013.81,1998.96,3373.40,3029.09,3487.43,599.88,578.64,0.59,0000 0000 0000 0000 000000
2018-04-22 09:06:45,0.10,0.05,0.00,30.98,33.79,36.48,13.53,47.67,1013.82,1998.93,3371.29,3027.67,3485.70,599.94,578.75,0.64,0000 0000 0000 0000 000000
2018-04-22 09:11:46,0.07,0.06,0.00,30.96,33.80,36.49,13.51,47.62,1013.71,1998.84,3369.18,3026.33,3484.00,600.16,578.93,0.69,0000 0000 0000 0000 000000
2018-04-22 09:16:48,0.08,0.06,0.00,30.93,33.82,36.50,13.60,47.74,1013.70,1998.71,3367.14,3024.88,3482.35,600.53,579.27,0.74,0000 0000 0000 0000 000000
2018-04-22 09:21:49,0.06,0.07,0.00,30.92,33.82,36.51,13.53,47.63,1013.69,1998.40,3365.09,3023.61,3480.63,600.09,579.09,0.79,0000 0000 0000 0000 000000
2018-04-22 09:26:51,0.07,0.07,0.00,30.92,33.83,36.52,13.46,47.66,1013.65,1998.22,3363.04,3022.20,3478.99,600.12,578.84,0.84,0000 0000 0000 0000 000000
2018-04-22 09:31:52,0.09,0.07,0.00,30.87,33.85,36.52,13.60,47.72,1013.46,1998.07,3360.90,3020.73,3477.25,600.58,579.36,0.89,0000 0000 0000 0000 000000
2018-04-22 09:36:53,0.08,0.08,0.00,30.87,33.85,36.52,13.54,47.65,1013.25,1998.02,3358.88,3019.42,3475.52,600.18,578.82,0.94,0000 0000 0000 0000 000000
2018-04-22 09:41:55,0.08,0.08,0.00,30.87,33.85,36.54,13.49,47.67,1013.22,1998.04,3356.90,3018.06,3473.93,600.02,578.76,0.99,0000 0000 0000 0000 000000
2018-04-22 09:46:56,0.08,0.09,0.00,30.87,33.85,36.54,13.55,47.59,1013.20,1998.01,3354.98,3016.78,3472.38,600.02,578.59,1.04,0000 0000 0000 0000 000000
2018-04-22 09:51:57,0.09,0.09,0.00,30.85,33.87,36.53,13.41,47.47,1013.20,1998.03,3353.14,3015.59,3470.88,599.69,578.44,1.09,0000 0000 0000 0000 000000
2018-04-22 09:56:59,0.08,0.10,0.00,30.84,33.87,36.53,13.40,47.48,1013.20,1998.03,3351.25,3014.32,3469.33,599.67,578.38,1.14,0000 0000 0000 0000 000000
2018-04-22 10:02:00,0.08,0.10,0.00,30.83,33.87,36.54,13.51,47.54,1013.12,1998.00,3349.34,3013.04,3467.71,600.49,579.09,1.19,0000 0000 0000 0000 000000
2018-04-22 10:07:02,0.08,0.10,0.00,30.80,33.87,36.53,13.53,47.52,1012.97,1998.00,3347.42,3011.76,3466.18,599.64,578.32,1.24,0000 0000 0000 0000 000000
2018-04-22 10:12:03,0.08,0.11,0.00,30.77,33.87,36.55,13.44,47.48,1012.79,1998.00,3345.63,3010.55,3464.69,599.93,578.54,1.29,0000 0000 0000 0000 000000
2018-04-22 10:17:04,0.07,0.11,0.00,30.76,33.87,36.55,13.54,47.55,1012.72,1998.01,3343.83,3009.36,3463.25,600.03,578.63,1.34,0000 0000 0000 0000 000000
2018-04-22 10:22:06,0.07,0.12,0.00,30.72,33.87,36.56,13.53,47.54,1012.71,1998.00,3342.04,3008.25,3461.77,600.03,578.55,1.39,0000 0000 0000 0000 000000
2018-04-22 10:27:07,0.08,0.12,0.00,30.71,33.87,36.57,13.51,47.55,1012.71,1998.00,3340.11,3007.01,3460.16,600.00,578.68,1.44,0000 0000 0000 0000 000000
2018-04-22 10:32:08,0.08,0.13,0.00,30.68,33.87,36.57,13.49,47.54,1012.71,1998.00,3338.26,3005.79,3458.65,599.93,578.67,1.49,0000 0000 0000 0000 000000
2018-04-22 10:37:09,0.07,0.13,0.00,30.67,33.88,36.56,13.58,47.55,1012.71,1998.00,3336.55,3004.64,3457.20,600.41,579.16,1.54,0000 0000 0000 0000 000000
2018-04-22 10:42:11,0.08,0.13,0.00,30.66,33.88,36.57,13.54,47.57,1012.71,1998.00,3334.75,3003.45,3455.67,600.14,578.96,1.59,0000 0000 0000 0000 000000
2018-04-22 10:47:12,0.07,0.14,0.00,30.65,33.88,36.57,13.52,47.51,1012.71,1998.00,3333.00,3002.22,3454.27,600.01,578.81,1.65,0000 0000 0000 0000 000000
2018-04-22 10:52:13,0.07,0.14,0.00,30.64,33.88,36.58,13.53,47.49,1012.67,1998.00,3331.34,3001.11,3452.79,600.15,578.89,1.70,0000 0000 0000 0000 000000
2018-04-22 10:57:14,0.08,0.15,0.00,30.65,33.89,36.58,13.54,47.51,1012.33,1998.00,3329.58,2999.97,3451.52,600.39,578.93,1.75,0000 0000 0000 0000 000000
2018-04-22 11:02:15,0.08,0.15,0.00,30.68,33.89,36.58,13.47,47.46,1012.26,1998.00,3327.82,2998.82,3450.04,599.88,578.44,1.80,0000 0000 0000 0000 000000
2018-04-22 11:07:17,0.08,0.15,0.00,30.70,33.90,36.59,13.55,47.44,1012.23,1998.00,3326.17,2997.57,3448.57,600.01,578.44,1.85,0000 0000 0000 0000 000000
2018-04-22 11:12:18,0.07,0.16,0.00,30.74,33.90,36.61,13.50,47.38,1012.22,1998.00,3324.44,2996.42,3447.12,599.96,578.27,1.90,0000 0000 0000 0000 000000
2018-04-22 11:17:19,0.08,0.16,0.00,30.72,33.90,36.60,13.47,47.31,1012.22,1997.99,3322.73,2995.33,3445.74,600.10,578.39,1.95,0000 0000 0000 0000 000000
2018-04-22 11:22:20,0.07,0.17,0.00,30.67,33.89,36.61,13.50,47.52,1012.22,1997.99,3321.03,2994.21,3444.38,600.03,578.55,2.00,0000 0000 0000 0000 000000
2018-04-22 11:27:21,0.07,0.17,0.00,30.60,33.88,36.63,13.50,47.41,1012.22,1997.99,3319.40,2993.04,3443.00,599.97,578.65,2.05,0000 0000 0000 0000 000000
2018-04-22 11:32:23,0.08,0.17,0.00,30.54,33.87,36.63,13.46,47.49,1012.06,1997.99,3317.66,2991.93,3441.64,599.85,578.41,2.10,0000 0000 0000 0000 000000
2018-04-22 11:37:24,0.07,0.18,0.00,30.47,33.87,36.61,13.55,47.43,1011.89,1997.99,3315.89,2990.81,3440.27,600.18,578.82,2.15,0000 0000 0000 0000 000000
2018-04-22 11:42:25,0.07,0.18,0.00,30.41,33.86,36.57,13.54,47.56,1011.75,1997.99,3314.31,2989.76,3438.96,600.23,578.93,2.20,0000 0000 0000 0000 000000
2018-04-22 11:47:27,0.08,0.19,0.00,30.35,33.85,36.58,13.56,47.39,1011.73,1997.99,3312.70,2988.71,3437.64,599.83,578.60,2.25,0000 0000 0000 0000 000000
2018-04-22 11:52:28,0.06,0.19,0.00,30.29,33.83,36.58,13.57,47.44,1011.72,1997.99,3311.20,2987.73,3436.45,600.01,578.79,2.30,0000 0000 0000 0000 000000
2018-04-22 11:57:29,0.07,0.19,0.00,30.25,33.81,36.59,13.57,47.33,1011.72,1997.99,3309.57,2986.69,3435.04,600.26,579.13,2.35,0000 0000 0000 0000 000000
2018-04-22 12:02:30,0.07,0.20,0.00,30.21,33.80,36.70,13.52,47.39,1011.57,1997.99,3307.98,2985.59,3433.77,600.01,579.06,2.40,0000 0000 0000 0000 000000
2018-04-22 12:07:32,0.06,0.20,0.00,30.16,33.77,36.74,13.53,47.42,1011.34,1997.99,3306.42,2984.65,3432.58,599.89,578.83,2.45,0000 0000 0000 0000 000000
2018-04-22 12:12:33,0.07,0.20,0.00,30.13,33.75,36.69,13.52,47.45,1011.26,1997.99,3304.84,2983.65,3431.40,599.99,578.89,2.50,0000 0000 0000 0000 000000
2018-04-22 12:17:34,0.06,0.21,0.00,30.09,33.73,36.67,13.50,47.55,1011.25,1998.00,3303.34,2982.66,3430.20,599.93,578.95,2.55,0000 0000 0000 0000 000000
2018-04-22 12:22:35,0.07,0.21,0.00,30.05,33.70,36.62,13.56,47.46,1011.25,1998.03,3301.80,2981.68,3428.90,599.93,579.03,2.60,0000 0000 0000 0000 000000
2018-04-22 12:27:36,0.06,0.21,0.00,30.02,33.68,36.58,13.52,47.43,1011.24,1998.05,3300.31,2980.75,3427.79,599.65,578.76,2.65,0000 0000 0000 0000 000000
2018-04-22 12:32:38,0.08,0.22,0.00,30.00,33.65,36.54,13.48,47.51,1011.14,1998.15,3298.72,2979.77,3426.65,599.89,579.02,2.70,0000 0000 0000 0000 000000
2018-04-22 12:37:39,0.09,0.22,0.00,29.97,33.62,36.50,13.56,47.48,1010.95,1998.48,3297.20,2978.83,3425.46,600.00,579.15,2.75,0000 0000 0000 0000 000000
2018-04-22 12:42:41,0.10,0.23,0.00,29.94,33.60,36.47,13.53,47.49,1010.80,1998.89,3295.73,2977.86,3424.39,599.78,578.90,2.80,0000 0000 0000 0000 000000
2018-04-22 12:47:42,0.06,0.23,0.00,29.90,33.57,36.44,13.61,47.53,1010.77,1998.97,3294.24,2976.98,3423.25,600.02,579.14,2.85,0000 0000 0000 0000 000000
2018-04-22 12:52:43,0.07,0.24,0.00,29.87,33.54,36.41,13.47,47.50,1010.76,1998.99,3292.76,2976.03,3422.12,599.85,578.99,2.90,0000 0000 0000 0000 000000
2018-04-22 12:57:45,0.06,0.24,0.00,29.84,33.51,36.38,13.59,47.41,1010.71,1999.00,3291.35,2975.13,3420.96,600.33,579.51,2.95,0000 0000 0000 0000 000000